Tracking 22879 objects as of 22-Apr-2021
HD Live streaming from Space Station
objects crossing your sky now

COSMOS 1579

Track COSMOS 1579 now!
10-day predictions
COSMOS 1579 is classified as:


NORAD ID: 15085
Int'l Code: 1984-069A
Perigee: 906.0 km
Apogee: 993.1 km
Inclination: 65.0 °
Period: 103.9 minutes
Semi major axis: 7320 km
RCS: 2.625 m2 (large)
Launch date: June 29, 1984
Source: Commonwealth of Independent States (former USSR) (CIS)
Launch site: TYURATAM MISSILE AND SPACE COMPLEX (TTMTR)
aabbcc
Your satellite tracking list
Your tracking list is empty




NASA's NSSDC Master Catalog

Two Line Element Set (TLE):
1 15085U 84069A   21112.15888596 -.00000067  00000-0  18836-4 0  9997
2 15085  65.0499 285.9675 0059471 305.9191  53.6360 13.86066886865172
Source of the keplerian elements: AFSPC